Location: East Irvine
(33.6759°N, 117.7598°W)
Time: 01:29:20
(UTC+00:00)

SPOT 1/Viking Rocket - Pass Details

Date: 15 November 2025
Orbit: 773 x 788 km, 98.2° (Epoch: 07 December)

Event Time Altitude Azimuth Distance (km) Brightness Sun altitude
Rises 01:27:29 0° 140° (SE) 3,248 6.5 -8.5°
Reaches altitude 10° 01:30:01 10° 130° (SE) 2,326 5.7 -9.0°
Maximum altitude 01:34:28 30° 70° (ENE) 1,365 4.3 -9.9°
Drops below altitude 10° 01:38:56 10° 10° (N) 2,347 5.8 -10.8°
Sets 01:41:29 0° 0° (N) 3,281 6.6 -11.3°
